Overview Statistics Trail Chart Weather Telemetry Raw packets
 

This is the latest recevied weather packets stored in our database for station/object IU3OVK-13. If no packets are shown the sender has not sent any weather packets the latest 10 day(s).

<< 33 34 35 36 37 38 39 >>
Time Temp. Humidity Pressure Rain* Wind** Luminosity Snow
1787939444 27.22° C 99% 1005.3 hPa - - - -
1787938824 27.22° C 99% 1005 hPa - - - -
1787938204 27.78° C 99% 1006.1 hPa - - - -
1787937584 28.33° C 99% 1006 hPa - - - -
1787936963 28.33° C 99% 1005.7 hPa - - - -
1787935723 27.78° C 99% 1005.1 hPa - - - -
1787934482 28.33° C 99% 1006.4 hPa - - - -
1787933862 28.33° C 99% 1006.1 hPa - - - -
1787933242 28.33° C 99% 1006.4 hPa - - - -
1787932622 28.89° C 99% 1006.2 hPa - - - -
1787932002 29.44° C 99% 1006 hPa - - - -
1787931381 29.44° C 99% 1005.9 hPa - - - -
1787930761 30° C 99% 1006.1 hPa - - - -
1787930141 30° C 99% 1006 hPa - - - -
1787929521 30.56° C 99% 1006.1 hPa - - - -
1787928901 31.11° C 99% 1005.9 hPa - - - -
1787928280 31.67° C 99% 1005.5 hPa - - - -
1787926420 31.11° C 99% 1006.8 hPa - - - -
1787925800 32.22° C 99% 1005.9 hPa - - - -
1787925179 33.89° C 99% 1005.7 hPa - - - -
1787924559 33.33° C 99% 1005.6 hPa - - - -
1787923939 33.33° C 99% 1005.9 hPa - - - -
1787923319 32.78° C 99% 1006.2 hPa - - - -
1787922698 32.22° C 99% 1006.5 hPa - - - -
1787922078 32.78° C 99% 1006.5 hPa - - - -

* Rain since midnight (hover to see other rain measurements)
** Current wind speed in m/s (hover to see current wind gust speed)